Oxford, CT

6:50 PM EDT on October 16, 2017 (GMT -0400)
Waterbury-Oxford

Weather History for KOXC - February, 2012

Change the Weather History Date:

Thursday, February 23, 2012

  Actual Average Record
Temperature  
Mean Temperature 42 °F -  
Max Temperature 51 °F 37 °F 60 °F (2017)
Min Temperature 32 °F 22 °F 0 °F (2015)
Degree Days  
Heating Degree Days 24    
Moisture  
Dew Point 31 °F    
Average Humidity 67    
Maximum Humidity 87    
Minimum Humidity 37    
Precipitation  
Precipitation 0.00 in - - ()
Sea Level Pressure  
Sea Level Pressure 29.56 in    
Wind  
Wind Speed 7 mph (WSW)    
Max Wind Speed 14 mph    
Max Gust Speed 28 mph    
Visibility 8 miles    
Events      
Averages and records for this station are not official NWS values.
T = Trace of Precipitation, MM = Missing Value Source: NWS Daily Summary

Daily Weather History Graph

Daily Weather History Graph

Search for Another Location

Airport or City:

Trip Planner

Search our weather history database for the weather conditions in past years. The results will help you decide how hot, cold, wet, or windy it might be!

Date:

Astronomy

Feb. 23, 2012 Rise Set
Actual Time 6:37 AM EST 5:35 PM EST
Civil Twilight 6:09 AM EST 6:03 PM EST
Nautical Twilight 5:36 AM EST 6:35 PM EST
Astronomical Twilight 5:04 AM EST 7:07 PM EST
Moon 7:00 AM EST (2/23) 7:40 PM EST (2/23)
Length of Visible Light 11h 54m
Length of Day
10h 58m
Waxing Crescent, 3% of the Moon is Illuminated
Feb 23
Waxing Crescent
Feb 29
First Quarter
Mar 8
Full
Mar 14
Last Quarter
Mar 22
New

Hourly Weather History & Observations

Time (EST) Temp. Windchill Dew Point Humidity Pressure Visibility Wind Dir Wind Speed Gust Speed Precip Events Conditions
12:15 AM 42.8 °F 37.5 °F 37.4 °F 81% 29.52 in 10.0 mi South 9.2 mph - N/A   Overcast
12:55 AM 42.8 °F 37.0 °F 37.4 °F 81% 29.49 in 10.0 mi SSE 10.4 mph - N/A   Partly Cloudy
1:15 AM 42.8 °F 38.6 °F 37.4 °F 81% 29.49 in 8.0 mi SSE 6.9 mph - N/A   Clear
1:35 AM 42.8 °F 38.0 °F 37.4 °F 81% 29.48 in 8.0 mi SSE 8.1 mph - N/A   Clear
1:55 AM 42.8 °F 39.3 °F 37.4 °F 81% 29.47 in 9.0 mi SSE 5.8 mph - N/A   Mostly Cloudy
2:15 AM 42.8 °F 38.6 °F 37.4 °F 81% 29.46 in 8.0 mi SSE 6.9 mph - N/A   Overcast
2:35 AM 42.8 °F 38.0 °F 37.4 °F 81% 29.44 in 8.0 mi SSE 8.1 mph - N/A   Overcast
3:15 AM 42.8 °F 41.1 °F 39.2 °F 87% 29.42 in 6.0 mi South 3.5 mph - N/A   Overcast
3:35 AM 42.8 °F 40.1 °F 39.2 °F 87% 29.40 in 5.0 mi South 4.6 mph - N/A   Mostly Cloudy
3:55 AM 42.8 °F 41.1 °F 39.2 °F 87% 29.40 in 5.0 mi South 3.5 mph - N/A   Mostly Cloudy
4:15 AM 42.8 °F 40.1 °F 39.2 °F 87% 29.40 in 5.0 mi South 4.6 mph - N/A   Overcast
4:35 AM 42.8 °F 41.1 °F 39.2 °F 87% 29.40 in 4.0 mi SSW 3.5 mph - N/A   Overcast
4:55 AM 42.8 °F 41.1 °F 39.2 °F 87% 29.40 in 4.0 mi WSW 3.5 mph - N/A   Overcast
5:15 AM 42.8 °F - 39.2 °F 87% 29.40 in 2.5 mi Calm Calm - N/A   Overcast
5:45 AM 42.8 °F 41.1 °F 39.2 °F 87% 29.40 in 3.0 mi WSW 3.5 mph - N/A   Clear
6:48 AM 42.8 °F 38.6 °F 39.2 °F 87% 29.41 in 5.0 mi West 6.9 mph - N/A   Overcast
7:45 AM 42.8 °F 38.0 °F 39.2 °F 87% 29.42 in 8.0 mi West 8.1 mph - N/A   Overcast
9:45 AM 48.2 °F - 37.4 °F 66% 29.45 in 10.0 mi West 9.2 mph - N/A   Partly Cloudy
10:15 AM 51.8 °F - 35.6 °F 54% 29.45 in 10.0 mi West 11.5 mph 27.6 mph N/A   Mostly Cloudy
10:45 AM 51.8 °F - 33.8 °F 50% 29.46 in 10.0 mi WNW 6.9 mph 27.6 mph N/A   Scattered Clouds
11:45 AM 51.8 °F - 33.8 °F 50% 29.48 in 10.0 mi NW 11.5 mph 18.4 mph N/A   Scattered Clouds
1:50 PM 46.4 °F 41.1 °F 33.8 °F 62% 29.54 in 10.0 mi North 11.5 mph 23.0 mph N/A   Scattered Clouds
2:45 PM 48.2 °F - 26.6 °F 43% 29.56 in 10.0 mi NW 13.8 mph 23.0 mph N/A   Scattered Clouds
3:45 PM 48.2 °F - 23.0 °F 37% 29.59 in 10.0 mi NW 9.2 mph 20.7 mph N/A   Scattered Clouds
4:45 PM 46.4 °F 41.9 °F 21.2 °F 37% 29.67 in 10.0 mi NW 9.2 mph 19.6 mph N/A   Partly Cloudy
5:45 PM 44.6 °F 38.8 °F 19.4 °F 37% 29.71 in 10.0 mi NNW 11.5 mph - N/A   Clear
6:45 PM 37.4 °F 30.8 °F 21.2 °F 52% 29.73 in 10.0 mi North 9.2 mph - N/A   Clear
7:45 PM 35.6 °F - 19.4 °F 52% 29.74 in 10.0 mi Calm Calm - N/A   Clear
8:55 PM 37.4 °F 34.9 °F 21.2 °F 52% 29.77 in 10.0 mi NE 3.5 mph - N/A   Clear
9:15 PM 35.6 °F 31.7 °F 19.4 °F 52% 29.77 in 10.0 mi North 4.6 mph - N/A   Clear
9:35 PM 33.8 °F 29.6 °F 19.4 °F 56% 29.78 in 10.0 mi NNE 4.6 mph - N/A   Clear
10:15 PM 35.6 °F 30.7 °F 19.4 °F 52% 29.79 in 10.0 mi North 5.8 mph - N/A   Clear
10:35 PM 33.8 °F - 19.4 °F 56% 29.79 in 10.0 mi Calm Calm - N/A   Clear
10:55 PM 33.8 °F - 21.2 °F 60% 29.79 in 10.0 mi Calm Calm - N/A   Clear
11:15 PM 32.0 °F 28.7 °F 19.4 °F 60% 29.80 in 10.0 mi South 3.5 mph - N/A   Clear
11:35 PM 33.8 °F - 19.4 °F 56% 29.79 in 10.0 mi Calm Calm - N/A   Clear
11:55 PM 32.0 °F - 21.2 °F 64% 29.79 in 10.0 mi Calm Calm - N/A   Partly Cloudy